Date String (YYYY-MM-DD hh:mm:ss) UTC,Instrument flags,Ambient pressure (hPa),Sample flow (lpm),Bypass flow (lpm),Sample temperature (°C),Ambient temperature (°C),ASC tube jacket temperature (°C),LED temperature (°C),Box temperature (°C),Sample RH (%),Span deviation,Mass concentration (μg/m³),Mass concentration (μg/m³),Mass concentration (μg/m³)
DateTimeUTC,F1_M11,P_M11,Q1_M11,Q2_M11,T1_M11,T2_M11,T3_M11,T4_M11,T5_M11,U1_M11,ZSPAN_M11,X2_M11,X0_M11,X1_M11
2022-07-21 13:00:00,,0829.2,5.00,0.00,29.9,28.8,00.0,38.7,31.9,19.8,0000.0,0005.76,0011.08,0004.50
2022-07-21 13:01:00,,0829.2,5.00,0.00,30.0,28.9,00.0,38.7,31.9,19.9,0000.0,0005.72,0011.16,0004.47
2022-07-21 13:02:00,,0829.2,5.00,0.00,30.0,28.9,00.0,38.7,31.9,20.0,0000.0,0005.69,0011.13,0004.46
2022-07-21 13:03:00,,0829.3,5.01,0.00,30.0,28.9,00.0,38.7,32.0,20.4,0000.0,0005.69,0011.02,0004.47
2022-07-21 13:04:00,,0829.2,4.99,0.00,30.0,29.0,00.0,38.8,32.0,20.6,0000.0,0005.67,0010.87,0004.48
2022-07-21 13:05:00,,0829.2,5.01,0.00,30.1,29.0,00.0,38.8,32.0,20.6,0000.0,0005.65,0010.75,0004.49
2022-07-21 13:06:00,,0829.2,5.00,0.00,30.1,29.0,00.0,38.8,32.0,20.5,0000.0,0005.62,0010.69,0004.48
2022-07-21 13:07:00,,0829.2,5.00,0.00,30.1,29.1,00.0,38.8,32.0,20.7,0000.0,0005.60,0010.69,0004.50
2022-07-21 13:08:00,,0829.2,5.00,0.00,30.1,29.1,00.0,38.8,32.1,20.8,0000.0,0005.61,0010.95,0004.51
2022-07-21 13:09:00,,0829.1,4.99,0.00,30.2,29.0,00.0,38.8,32.1,21.0,0000.0,0005.64,0011.44,0004.50
2022-07-21 13:10:00,,0829.1,5.00,0.00,30.1,28.1,00.0,38.8,32.0,21.2,0000.0,0005.70,0011.58,0004.51
2022-07-21 13:11:00,,0829.0,5.01,0.00,30.1,27.6,00.0,38.7,31.9,21.4,0000.0,0005.76,0011.95,0004.51
2022-07-21 13:12:00,,0829.1,4.99,0.00,30.0,27.5,00.0,38.7,31.8,21.7,0000.0,0005.80,0012.41,0004.51
2022-07-21 13:13:00,,0829.1,5.01,0.00,30.0,27.6,00.0,38.7,31.7,22.0,0000.0,0005.85,0012.58,0004.53
2022-07-21 13:14:00,,0829.2,4.99,0.00,29.9,27.7,00.0,38.7,31.6,22.5,0000.0,0005.82,0013.29,0004.53
2022-07-21 13:15:00,,0829.1,5.00,0.00,29.9,27.9,00.0,38.7,31.7,22.1,0000.0,0005.87,0013.71,0004.54
2022-07-21 13:16:00,,0829.2,5.00,0.00,29.9,28.0,00.0,38.7,31.7,22.3,0000.0,0005.89,0013.71,0004.55
2022-07-21 13:17:00,,0829.2,5.00,0.00,29.9,28.1,00.0,38.7,31.7,22.2,0000.0,0005.91,0013.67,0004.56
2022-07-21 13:18:00,,0829.2,5.01,0.00,29.9,28.3,00.0,38.7,31.7,22.9,0000.0,0005.97,0014.36,0004.57
2022-07-21 13:19:00,,0829.2,5.00,0.00,29.9,28.4,00.0,38.7,31.7,22.4,0000.0,0006.02,0014.43,0004.58
2022-07-21 13:20:00,,0829.2,4.99,0.00,29.9,28.5,00.0,38.7,31.8,21.9,0000.0,0006.03,0013.74,0004.60
2022-07-21 13:21:00,,0829.3,5.01,0.00,29.9,28.5,00.0,38.7,31.8,21.5,0000.0,0006.02,0013.52,0004.62
2022-07-21 13:22:00,,0829.2,5.01,0.00,29.9,28.6,00.0,38.7,31.8,22.1,0000.0,0006.05,0013.32,0004.63
2022-07-21 13:23:00,,0829.3,5.01,0.00,29.9,28.7,00.0,38.7,31.8,21.9,0000.0,0006.05,0013.19,0004.65
2022-07-21 13:24:00,,0829.2,5.00,0.00,30.0,28.8,00.0,38.7,31.9,21.8,0000.0,0006.09,0013.28,0004.66
2022-07-21 13:25:00,,0829.2,5.00,0.00,30.0,28.8,00.0,38.7,31.9,21.5,0000.0,0006.14,0013.45,0004.68
2022-07-21 13:26:00,,0829.2,5.00,0.00,30.0,28.9,00.0,38.7,31.9,22.1,0000.0,0006.06,0013.07,0004.66
2022-07-21 13:27:00,,0829.2,4.99,0.00,30.0,28.9,00.0,38.8,32.0,21.7,0000.0,0006.07,0013.66,0004.65
2022-07-21 13:28:00,,0829.3,5.01,0.00,30.0,29.0,00.0,38.8,32.0,21.1,0000.0,0006.09,0013.98,0004.64
2022-07-21 13:29:00,,0829.2,5.00,0.00,30.1,29.0,00.0,38.8,32.0,21.0,0000.0,0006.04,0013.40,0004.61
2022-07-21 13:30:00,,0829.3,5.00,0.00,30.1,29.1,00.0,38.8,32.0,20.6,0000.0,0005.99,0013.47,0004.60
2022-07-21 13:31:00,,0829.3,5.00,0.00,30.1,28.8,00.0,38.8,32.0,21.3,0000.0,0006.00,0013.51,0004.59
2022-07-21 13:32:00,,0829.2,4.99,0.00,30.1,28.0,00.0,38.7,31.9,21.1,0000.0,0005.98,0013.61,0004.57
2022-07-21 13:33:00,,0829.2,5.01,0.00,30.1,27.6,00.0,38.7,31.8,20.2,0000.0,0005.94,0013.81,0004.55
2022-07-21 13:34:00,,0829.3,4.99,0.00,30.0,27.6,00.0,38.7,31.7,21.0,0000.0,0005.88,0013.42,0004.53
2022-07-21 13:35:00,,0829.2,5.01,0.00,29.9,27.7,00.0,38.7,31.7,21.8,0000.0,0005.84,0012.97,0004.51
2022-07-21 13:36:00,,0829.2,4.98,0.00,29.9,27.8,00.0,38.7,31.7,22.4,0000.0,0005.84,0012.42,0004.51
2022-07-21 13:37:00,,0829.2,5.00,0.00,29.9,27.9,00.0,38.7,31.7,21.2,0000.0,0005.88,0012.20,0004.51
2022-07-21 13:38:00,,0829.2,5.00,0.00,29.9,28.1,00.0,38.7,31.7,20.6,0000.0,0005.83,0011.59,0004.51
2022-07-21 13:39:00,,0829.2,5.00,0.00,29.9,28.2,00.0,38.7,31.7,20.3,0000.0,0005.77,0011.23,0004.49
2022-07-21 13:40:00,,0829.3,4.99,0.00,29.9,28.3,00.0,38.7,31.7,20.5,0000.0,0005.71,0011.38,0004.47
2022-07-21 13:41:00,,0829.2,5.00,0.00,29.9,28.4,00.0,38.7,31.7,20.6,0000.0,0005.67,0011.04,0004.45
2022-07-21 13:42:00,,0829.3,5.01,0.00,29.9,28.5,00.0,38.7,31.7,20.7,0000.0,0005.67,0011.15,0004.43
2022-07-21 13:43:00,,0829.2,5.00,0.00,29.9,28.6,00.0,38.7,31.8,20.6,0000.0,0005.65,0011.48,0004.42
2022-07-21 13:44:00,,0829.2,5.00,0.00,29.9,28.7,00.0,38.7,31.9,20.8,0000.0,0005.65,0011.74,0004.41
2022-07-21 13:45:00,,0829.2,4.99,0.00,30.0,28.8,00.0,38.7,31.9,20.7,0000.0,0005.72,0012.12,0004.42
2022-07-21 13:46:00,,0829.2,5.01,0.00,30.0,28.8,00.0,38.7,31.9,20.6,0000.0,0005.73,0012.22,0004.41
2022-07-21 13:47:00,,0829.3,4.99,0.00,30.0,28.9,00.0,38.7,31.9,20.5,0000.0,0005.72,0012.24,0004.39
2022-07-21 13:48:00,,0829.2,4.99,0.00,30.0,28.9,00.0,38.8,32.0,20.6,0000.0,0005.70,0012.24,0004.37
2022-07-21 13:49:00,,0829.2,5.01,0.00,30.0,29.0,00.0,38.8,32.0,20.5,0000.0,0005.71,0012.30,0004.37
2022-07-21 13:50:00,,0829.2,5.01,0.00,30.1,28.9,00.0,38.8,32.0,20.3,0000.0,0005.73,0012.32,0004.36
2022-07-21 13:51:00,,0829.3,5.00,0.00,30.1,28.1,00.0,38.7,31.9,20.4,0000.0,0005.83,0012.45,0004.37
2022-07-21 13:52:00,,0829.3,4.99,0.00,30.0,27.6,00.0,38.7,31.8,20.6,0000.0,0005.90,0013.83,0004.38
2022-07-21 13:53:00,,0829.2,5.02,0.00,30.0,27.5,00.0,38.6,31.7,20.7,0000.0,0005.94,0014.11,0004.38
2022-07-21 13:54:00,,0829.2,5.00,0.00,29.9,27.6,00.0,38.7,31.7,20.6,0000.0,0005.98,0013.75,0004.38
2022-07-21 13:55:00,,0829.3,5.00,0.00,29.9,27.8,00.0,38.7,31.6,20.8,0000.0,0005.96,0013.29,0004.38
2022-07-21 13:56:00,,0829.2,5.00,0.00,29.9,27.9,00.0,38.6,31.6,20.9,0000.0,0005.94,0013.55,0004.38
2022-07-21 13:57:00,,0829.2,5.00,0.00,29.8,28.0,00.0,38.6,31.7,21.1,0000.0,0005.92,0014.05,0004.39
2022-07-21 13:58:00,,0829.2,5.00,0.00,29.8,28.2,00.0,38.6,31.7,21.5,0000.0,0005.92,0014.21,0004.40
2022-07-21 13:59:00,,0829.3,4.99,0.00,29.8,28.3,00.0,38.6,31.7,21.6,0000.0,0005.91,0014.18,0004.40
